Погода в Константиновске

Погода в Константиновске : погода сейчас, прогноз погоды и архив. Всё, что Вы хотите узнать о погоде в Константиновске!

Поиск расширенной информации на нашем сайте:

Другие новости

Новости СМИ2

Главная страница сайта

Новости сайта

03.07.2017

Напоминаем, что на нашем специализированном сайте Метеоцентр.Азия вы можете получить высокодетализированные автоматические прогнозы погоды по пунктам России, СНГ и мира в авиационном формате (включающие направление и скорость ветра, видимость, явления погоды, количество и форму облачности, нижнюю и верхнюю границу облачности).

Рекомендуем: Велоаксессуары в краснодаре велосипеды купить в краснодаре.

Погода в Константиновске - сегодня

Время (UTC), дата Ветер
(°,м/с) 
Видим.   Явления Облачность Т
(°С)
Тd
(°С)
f(%) Тe
(°С)
Pmin
(гПа)
dP
(гПа)
Po
(мм)
O2
(г/м3)
Тmin Tmax R s Состояние
почвы
06 15.08.17 080 (В) 10 км    8/0 средняя, верхняя 
[Ac trans|Ci fib]
+27.7 +8.5 30 +28  1015.1  0.8  756  275           
09 15.08.17 080 (В) 4{11}  10 км    6/0 средняя, верхняя 
[Ac trans|Ci sp]
+31.6 +5.1 19 +32  1015.1  0.1  756  272           
12 15.08.17 100 (В) 10 км    8/0 средняя, верхняя 
[Ac trans|Ci sp]
+31.2 +4.6 19 +31  1014.7  -0.5  756  273           
15 15.08.17 090 (В) 10 км    4/0 средняя, верхняя 
[Ac trans|Ci sp]
+30.8 +3.6 18 +31  1015.1  0.5  756  273    +33       
18 15.08.17 050 (СВ) 10 км    8/0 средняя 
[Ac trans]
+25.9 +3.6 24 +26  1015.7  0.5  756  278           
21 15.08.17 040 (СВ) 10 км    ясно 
+23.9 +2.4 24 +24  1015.6  -0.2  756  280           
00 16.08.17 040 (СВ) 10 км    3/0 верхняя 
[Ci fib]
+21.9 +3.7 30 +22  1015.3  -0.3  756  281           
03 16.08.17 040 (СВ) 10 км    10/0 средняя, верхняя 
[Ac As|Ci fib]
+20.7 +7.3 42 +21  1015.5  0.2  756  282  +20.3        сухая 
06 16.08.17 070 (В) 10 км    8/0 верхняя 
[Ci sp]
+26 +8.7 33 +26  1016.2  0.7  757  277           
09 16.08.17 100 (В) 10 км    9/0 верхняя 
[Ci sp]
+33 +5.3 18 +33  1015.9  -0.1  757  271           
12 16.08.17 080 (В) 4{10}  10 км    10/6 600 м верхняя 
[Cu med, cong|Ci sp]
+34 +2.4 14 +34  1015.5  -0.4  756  271           
15 16.08.17 070 (В) 3{11}  10 км    8/0 верхняя 
[Ci sp]
+31.8 +3.4 17 +32  1015.4  -0.1  756  272    +34       
18 16.08.17 040 (СВ) 10 км    ясно 
+27.4 +3.1 21 +27  1015.8  0.3  757  277           
21 16.08.17 050 (СВ) 10 км    ясно 
+25.2 +4.2 26 +25  1015.8  757  278           
00 17.08.17 050 (СВ) 10 км    ясно 
+21.9 +6.1 36 +22  1015.9  0.1  757  281           
03 17.08.17 050 (СВ) 10 км    ясно 
+21.3 +7.6 41 +21  1016.3  0.3  757  282  +21        сухая 
06 17.08.17 080 (В) 10 км    ясно 
+27.8 +9.1 31 +28  1016.9  0.7  757  275           
09 17.08.17 080 (В) 4-11{11}  10 км    ясно 
+31.6 +3.2 17 +32  1016.2  -0.6  757  273           
12 17.08.17 060 (СВ) 3{11}  10 км    3/0 средняя, верхняя 
[Ac trans|Ci sp]
+34.3 +1.5 13 +34  1014.7  -1.5  756  270           
15 17.08.17 060 (СВ) 3{11}  10 км    ясно 
+33.5 +1 13 +34  1013.4  -1.3  755  271    +34.4       
18 17.08.17 060 (СВ) 10 км    9/6 600 м средняя 
[Cu hum|Ac trans]
+28.7 +5.2 22 +29  1014.5  756  275           
21 17.08.17 070 (В) 10 км    ясно 
+24.6 +5.3 29 +25  1015.7  1.2  756  279           
00 18.08.17 050 (СВ) 10 км    ясно 
+21.9 +3.9 31 +22  1016.7  0.8  757  282           
03 18.08.17 050 (СВ) 10 км    ясно 
+20.6 +8.2 45 +21  1017.5  0.9  758  283  +20.5        сухая 
06 18.08.17 080 (В) 10 км    3/0 верхняя 
[Ci fib]
+27.9 +5.4 24 +28  1018.3  0.9  758  276           
Время (UTC), дата Ветер
(°,м/с) 
Видим.   Явления Облачность Т
(°С)
Тd
(°С)
f(%) Тe
(°С)
Pmin
(гПа)
dP
(гПа)
Po
(мм)
O2
(г/м3)
Тmin Tmax R s Состояние
почвы

Для получения пояснительной информации подведите курсор к названию столбца.

ПОГОДА в Константиновске - архив

Всё, что Вы хотите узнать о погоде в Константиновске - удобно и подробно!

Выберите нужную дату (начиная с 1 января 2015* года) и нажмите кнопку "Найти".
Будут отображены архивные сводки погоды по пункту Константиновск, начиная с указанной даты.


Отображать данные в формате CSV (для использования в таблицах Excel)


Внимание! Наш архив погоды предназначен исключительно для личного некоммерческого использования в познавательных целях. Если Вам необходимы официальные справки о состоянии погоды (для производственных, юридических, коммерческих и т.п. целей), обращайтесь в органы Росгидромета.

*Примечание: данная дата относится к архиву по метеостанциям СССР (Россия, СНГ, Балтия).
Архив по метеостанциям Зарубежной Европы и Азии (кроме Китая) хранится 10 дней, по другим регионам земного шара (Китай, Африка, Америка, Австралия, Океания) - 1 день.

Константиновск - район местоположения метеостанции


Название, широта, долгота, высота метеостанции:
Константиновск 47.6°ш. 41.1°д. 66 м над ур. моря [Российская Федерация]

Дополнительная информация

В oтличие oт бoльшинства пoгoдных сайтoв мы публикуем пoдрoбную метеoинфoрмацию в детальнoм прoфессиoнальнoм фoрмате.

Характеристики температуры и влажнoсти вoздуха измеряются на высoте 2 м в тени вдали oт зданий и деревьев.
Скoрoсть ветра измеряется на высoте 10 м (на урoвне рoста челoвека скoрoсть ветра ниже в 1.5-2 раза). Если метеoстанция нахoдится в гoрoде или в лесу, тo скoрoсть ветра занижена на 2-4 м/с пo сравнению с oткрытым местoм. Скoрoсть ветра над акватoриями крупных рек и oзёр, а также на вершинах хoлмoв на 2-5 м/с выше, чем в oбычных услoвиях.
Атмoсфернoе давление в разных тoчках местнoсти мoжет значительнo oтличаться oт давления на метеoстанции, в зависимoсти oт услoвий рельефа (при пoдъёме на 10 м давление пoнижается примернo на 1 мм рт.ст.).